Wind_Speed
2 2 2 2 1 1 0 0 1 1 1 1 1 1 1 1 2 3 3 4 4 4 5 5 6 6 7 7 7 6 6 5 5 5 5 6 6 6 6 6 5 4 5
2 2 3 3 2 1 1 1 0 1 1 1 1 2 2 2 3 4 5 5 5 5 6 6 7 8 8 8 8 8 7 6 5 5 6 7 7 7 6 5 5 4 5
2 3 2 3 3 2 2 1 1 0 1 2 2 2 3 4 5 5 6 6 6 6 7 7 7 8 9 8 7 7 7 6 6 6 6 7 7 7 6 6 6 5 6
3 2 2 3 3 3 2 2 2 2 2 2 3 3 3 4 5 5 6 6 7 7 8 7 7 8 8 7 6 7 7 8 8 7 7 7 8 8 8 7 7 6 6
3 3 3 3 3 3 3 2 3 2 3 3 4 4 4 5 5 6 6 6 7 7 8 7 8 8 8 7 7 7 8 9 8 8 8 9 9 9 9 8 8 8 8
4 3 3 3 3 3 3 3 3 3 3 4 5 5 6 6 6 7 7 7 7 7 8 8 8 8 9 8 8 9 9 9 10 9 9 9 9 9 9 9 8 8 8
4 4 3 4 3 4 3 3 3 3 4 4 5 6 7 7 7 7 8 8 8 8 8 8 9 10 10 9 9 10 10 9 10 10 10 10 10 9 10 10 9 9 9
3 4 3 4 4 3 3 3 3 4 4 5 6 6 7 7 8 8 8 8 8 8 8 8 9 9 9 9 9 9 9 9 9 9 10 10 10 10 10 10 10 10 10
3 3 4 4 3 3 2 3 4 4 5 5 6 7 7 7 7 8 8 8 8 8 8 8 9 9 10 10 10 10 9 9 9 9 9 10 11 10 10 11 10 10 10
4 4 4 3 3 3 3 3 4 4 5 6 7 7 7 8 8 9 9 9 9 9 9 9 10 10 10 10 10 10 10 10 10 10 10 10 11 11 11 11 12 12 11
5 4 4 4 4 4 4 4 5 5 6 6 7 7 8 9 9 9 10 10 10 10 10 10 11 11 11 11 11 11 11 11 11 11 11 11 12 12 12 12 12 12 12
6 6 5 5 5 5 5 5 5 6 6 7 7 7 8 8 9 9 10 10 10 10 10 10 11 11 12 12 12 12 12 12 12 12 12 12 12 13 13 12 12 12 12
6 7 6 6 6 6 6 6 7 7 8 8 8 8 9 9 9 9 9 10 10 9 10 10 11 12 12 12 13 13 13 12 12 12 13 13 13 13 13 12 12 12 13
7 7 7 7 7 7 7 7 7 8 8 8 8 8 8 8 8 9 9 9 9 9 10 11 11 12 13 13 13 13 13 14 13 14 14 13 12 12 12 12 13 13 13
8 7 8 8 8 8 8 8 8 8 8 8 8 8 8 8 8 9 9 10 10 10 10 11 12 12 12 13 13 13 13 14 14 14 14 14 14 13 13 13 14 14 14
8 8 8 7 8 8 8 8 8 9 9 9 9 8 9 9 10 10 11 11 11 11 11 12 12 12 12 12 12 13 14 15 15 15 15 15 14 15 15 15 15 14 15
9 8 8 8 8 9 9 9 9 9 9 9 9 9 10 10 10 11 11 11 12 12 13 13 13 13 13 13 13 14 14 15 15 16 16 16 15 15 15 15 16 15 15
9 9 9 9 9 9 10 10 10 10 10 10 10 10 11 11 11 12 12 13 13 14 14 14 14 14 14 15 15 15 15 15 15 16 16 16 16 16 16 16 15 15 15
10 10 9 9 9 10 10 10 10 10 10 11 11 11 12 12 13 13 14 14 15 15 15 15 16 16 16 16 16 16 16 15 16 16 16 16 17 17 16 16 15 15 15
10 10 11 11 10 11 11 11 11 11 11 11 12 13 13 14 14 15 16 16 16 16 17 17 17 18 18 18 17 17 17 16 16 16 16 16 17 17 17 16 15 15 16
11 12 12 12 12 11 11 11 11 11 12 12 13 14 15 15 16 17 17 18 18 18 18 19 19 19 19 19 19 19 18 18 18 17 17 17 17 17 17 17 16 15 16
13 13 13 13 12 12 11 12 12 13 13 14 14 15 16 16 17 18 18 19 19 19 20 20 20 21 21 21 21 20 20 20 19 18 18 18 18 18 18 18 17 17 16
13 13 13 13 13 13 13 13 13 14 14 15 15 16 16 17 18 19 20 20 19 19 20 20 21 21 21 21 21 21 21 21 20 19 18 18 19 19 19 18 18 17 17
14 14 14 14 14 14 14 14 14 14 15 15 16 17 17 17 18 19 20 20 20 20 20 20 20 20 20 20 21 21 21 20 20 20 19 19 19 19 19 19 18 19 18
15 15 15 14 14 15 15 15 16 15 16 16 17 17 17 18 19 19 20 20 20 20 21 21 21 21 20 20 20 20 20 21 21 20 20 20 20 20 20 20 19 19 19
17 16 16 16 15 15 16 16 17 18 18 18 18 18 18 19 20 20 20 20 21 21 21 21 22 22 22 22 21 22 22 22 22 21 20 21 21 21 22 22 21 21 21
Wind_Direction
179 185 190 184 183 159 124 330 93 51 36 24 3 355 314 301 297 293 289 282 285 291 290 291 291 291 291 287 279 274 273 279 284 290 292 290 296 301 309 310 299 276 271
187 188 197 200 213 211 238 266 308 1 351 5 338 313 309 291 301 294 295 294 295 291 293 294 293 292 294 288 277 272 270 275 280 285 287 287 293 298 303 306 295 284 280
182 181 190 205 217 228 244 257 264 298 319 329 316 295 287 291 295 294 294 293 297 293 289 290 294 298 300 291 274 266 264 271 279 281 285 288 291 298 299 300 294 290 286
197 204 209 216 221 225 234 258 265 267 283 302 305 302 292 291 289 296 300 284 291 291 286 287 294 302 306 292 271 262 265 270 273 278 284 285 287 290 295 294 294 291 290
211 216 221 224 230 228 235 254 260 265 278 287 293 301 302 297 293 294 296 290 291 287 281 283 291 294 300 293 276 268 270 273 275 277 280 282 284 286 289 289 288 288 292
225 221 226 234 233 234 242 248 256 269 284 289 292 298 304 304 299 297 296 293 290 291 288 287 290 291 293 287 285 277 273 272 270 273 277 279 279 283 288 291 286 287 289
230 231 234 239 238 240 249 258 266 274 282 289 291 297 301 304 301 301 299 298 299 300 299 295 292 292 292 287 284 277 275 272 270 270 274 278 278 277 281 282 283 282 282
222 228 231 234 239 238 252 265 268 274 282 291 295 297 299 299 297 299 300 301 300 300 297 294 293 292 287 285 283 279 274 271 271 272 276 276 277 275 275 273 276 278 281
222 233 235 233 235 247 266 278 278 280 284 290 294 295 295 296 294 296 301 302 302 301 297 293 290 285 284 284 283 279 277 273 275 277 279 278 275 275 273 272 271 275 275
236 241 238 241 242 250 266 277 279 284 287 288 292 292 292 294 297 300 300 300 299 296 294 292 291 285 283 282 280 278 278 278 278 280 281 280 278 276 275 274 273 276 276
243 244 250 254 252 256 270 277 280 286 289 289 292 293 294 294 293 295 296 295 293 293 292 291 289 291 288 283 282 278 278 281 280 280 280 281 279 276 275 274 274 276 276
250 251 257 262 265 266 269 273 281 287 289 290 291 292 294 295 292 294 295 293 292 290 290 291 289 292 288 284 281 277 275 277 279 277 277 280 281 278 276 274 274 273 271
256 254 254 261 268 270 271 276 283 289 291 292 291 291 294 295 293 293 296 294 294 291 291 293 294 295 290 284 281 277 275 274 275 276 277 277 277 276 275 274 274 273 273
260 261 259 263 267 270 274 278 281 285 287 290 292 292 293 295 295 296 296 294 293 293 295 297 297 295 293 290 285 280 277 277 277 278 277 276 276 274 274 274 273 271 271
259 262 263 268 270 269 273 277 278 278 281 286 289 290 291 293 294 296 297 296 294 293 295 296 296 295 295 295 291 286 282 280 280 280 280 279 279 276 273 272 274 272 269
257 259 260 264 272 271 271 275 276 279 281 282 282 284 286 288 291 294 294 294 293 294 293 294 295 295 295 294 292 289 287 286 283 282 280 279 278 277 275 271 269 270 268
255 256 258 266 273 274 273 274 277 278 279 280 280 281 284 287 290 292 293 293 294 295 295 295 295 296 294 293 292 290 287 284 284 283 280 278 277 276 276 276 275 269 267
256 258 259 265 271 275 275 274 275 276 278 280 281 282 285 287 289 291 292 292 293 294 294 295 295 294 293 292 292 290 288 286 285 284 279 276 275 275 274 275 276 271 269
262 265 265 266 271 275 276 274 274 277 279 280 282 282 285 288 290 292 293 293 293 292 292 294 293 292 292 292 291 289 287 285 285 285 280 276 275 275 275 273 272 271 270
264 265 266 267 269 273 275 274 275 277 280 280 282 284 287 290 292 294 294 294 292 292 292 293 293 292 291 290 289 287 284 283 283 283 282 279 277 275 275 274 272 270 269
261 263 264 266 266 268 271 274 277 279 283 284 287 288 289 289 291 293 294 294 294 294 293 292 292 292 290 289 288 284 281 280 279 278 279 278 277 276 275 273 272 270 269
261 263 264 265 266 265 267 272 276 280 282 284 287 288 289 291 292 294 296 296 295 295 294 292 292 291 289 287 285 282 279 277 275 273 274 275 275 276 275 273 270 269 268
263 263 264 266 266 267 268 273 275 281 284 286 288 289 291 292 292 294 297 298 297 297 297 296 293 291 290 287 284 282 278 275 273 273 272 272 273 273 273 273 272 269 267
264 265 265 264 266 268 270 274 278 280 284 286 287 288 290 293 294 296 298 298 299 299 299 298 296 294 292 289 287 283 279 275 271 272 272 272 270 270 271 270 270 268 267
265 265 264 265 266 267 270 275 279 281 283 284 286 289 290 293 296 297 298 298 298 299 299 298 298 296 294 291 288 285 281 275 271 270 269 270 268 268 269 268 267 268 267
265 266 264 266 268 268 270 273 278 280 283 286 287 288 291 293 294 295 296 297 297 298 298 298 298 295 294 293 290 285 281 277 272 270 267 266 266 267 267 267 266 268 268
Height
5869 5869 5869 5870 5870 5871 5871 5871 5871 5871 5872 5872 5872 5872 5873 5873 5872 5873 5873 5873 5873 5873 5874 5874 5874 5874 5873 5873 5873 5873 5873 5874 5874 5874 5874 5874 5874 5873 5871 5869 5867 5867 5870
5869 5869 5869 5870 5870 5871 5871 5871 5871 5871 5871 5872 5872 5872 5872 5872 5872 5872 5872 5872 5872 5872 5872 5873 5872 5872 5871 5870 5870 5871 5872 5873 5873 5873 5873 5873 5873 5872 5871 5869 5868 5868 5869
5868 5869 5869 5870 5870 5870 5870 5871 5871 5871 5871 5871 5871 5872 5871 5871 5871 5871 5871 5871 5871 5871 5871 5871 5871 5870 5869 5867 5867 5869 5870 5871 5872 5872 5872 5872 5872 5871 5870 5869 5868 5868 5869
5868 5869 5869 5869 5870 5870 5870 5870 5870 5870 5870 5871 5871 5871 5870 5871 5871 5870 5869 5869 5870 5870 5870 5870 5870 5869 5868 5866 5866 5867 5869 5870 5870 5871 5871 5871 5870 5870 5869 5869 5869 5868 5868
5868 5868 5868 5869 5869 5869 5869 5870 5870 5870 5870 5870 5870 5870 5870 5870 5870 5870 5869 5869 5869 5869 5868 5869 5869 5868 5868 5867 5866 5866 5868 5868 5869 5869 5869 5869 5869 5869 5868 5868 5868 5868 5867
5867 5868 5868 5868 5868 5869 5869 5869 5869 5869 5869 5869 5869 5869 5869 5869 5869 5868 5868 5868 5868 5867 5867 5867 5867 5867 5867 5867 5867 5866 5866 5866 5867 5867 5867 5867 5867 5867 5867 5866 5866 5866 5866
5867 5867 5867 5868 5868 5868 5868 5868 5868 5868 5868 5868 5868 5868 5868 5868 5868 5867 5867 5867 5867 5866 5866 5866 5866 5866 5866 5865 5865 5865 5865 5865 5865 5865 5865 5866 5865 5865 5865 5864 5865 5864 5864
5866 5867 5867 5867 5867 5867 5867 5867 5868 5867 5867 5867 5867 5867 5867 5866 5866 5866 5866 5865 5865 5865 5865 5864 5864 5864 5864 5864 5864 5863 5863 5863 5863 5863 5863 5863 5863 5863 5863 5862 5862 5862 5862
5866 5866 5866 5866 5866 5866 5866 5867 5867 5867 5867 5866 5866 5866 5866 5865 5865 5864 5864 5864 5864 5863 5863 5863 5862 5862 5862 5862 5861 5861 5861 5861 5861 5861 5861 5861 5861 5861 5861 5860 5860 5860 5860
5865 5865 5865 5865 5865 5866 5866 5866 5865 5865 5865 5865 5865 5864 5864 5864 5863 5863 5862 5862 5862 5862 5861 5861 5860 5860 5860 5859 5859 5859 5859 5859 5859 5859 5859 5858 5858 5858 5858 5858 5858 5857 5857
5864 5864 5864 5864 5864 5864 5864 5864 5864 5864 5864 5864 5863 5863 5863 5862 5862 5861 5861 5860 5860 5860 5859 5859 5858 5858 5857 5857 5857 5856 5856 5856 5856 5856 5856 5856 5856 5855 5855 5855 5855 5855 5855
5862 5863 5863 5863 5863 5863 5863 5863 5863 5863 5862 5862 5862 5861 5861 5861 5860 5859 5859 5858 5858 5857 5857 5856 5856 5855 5855 5855 5854 5854 5853 5853 5853 5853 5853 5853 5853 5852 5852 5852 5852 5852 5852
5861 5861 5861 5861 5861 5862 5862 5861 5861 5861 5861 5860 5860 5859 5859 5858 5858 5857 5857 5856 5856 5855 5855 5854 5854 5853 5852 5852 5852 5851 5850 5850 5850 5850 5850 5850 5849 5849 5849 5849 5849 5849 5849
5859 5860 5860 5860 5860 5860 5860 5859 5859 5859 5859 5858 5858 5857 5857 5856 5856 5855 5855 5854 5854 5853 5853 5852 5851 5850 5850 5849 5849 5848 5847 5847 5847 5847 5847 5846 5846 5846 5846 5846 5846 5846 5846
5857 5857 5858 5858 5858 5858 5858 5858 5857 5857 5857 5856 5856 5855 5855 5854 5854 5853 5853 5852 5852 5851 5850 5850 5849 5848 5847 5846 5846 5845 5844 5844 5844 5843 5843 5843 5843 5842 5842 5842 5842 5842 5842
5855 5855 5855 5856 5856 5856 5856 5856 5855 5855 5855 5854 5854 5853 5853 5852 5852 5851 5850 5850 5849 5848 5848 5847 5846 5845 5844 5843 5843 5842 5841 5841 5840 5840 5839 5839 5839 5839 5839 5839 5838 5839 5838
5853 5853 5853 5853 5854 5854 5854 5853 5853 5853 5852 5852 5852 5851 5851 5850 5849 5849 5848 5847 5846 5845 5844 5843 5843 5842 5841 5840 5839 5838 5838 5837 5837 5836 5836 5836 5835 5835 5835 5835 5835 5835 5834
5851 5851 5851 5851 5851 5851 5851 5851 5851 5851 5850 5850 5849 5849 5848 5847 5847 5846 5845 5844 5843 5842 5841 5840 5839 5838 5837 5837 5836 5835 5834 5833 5833 5832 5832 5831 5831 5831 5831 5831 5831 5831 5831
5848 5848 5849 5849 5849 5849 5849 5849 5848 5848 5848 5847 5847 5846 5845 5845 5844 5843 5842 5841 5840 5839 5838 5836 5835 5834 5833 5832 5831 5831 5830 5829 5828 5828 5827 5827 5827 5827 5827 5827 5827 5827 5827
5845 5846 5846 5846 5846 5846 5846 5846 5846 5845 5845 5845 5844 5843 5842 5842 5841 5840 5839 5837 5836 5835 5834 5832 5831 5830 5828 5827 5827 5826 5825 5824 5824 5823 5823 5823 5823 5823 5822 5823 5823 5823 5823
5843 5843 5843 5843 5843 5843 5843 5843 5843 5842 5842 5841 5841 5840 5839 5838 5837 5836 5835 5833 5832 5830 5829 5827 5826 5824 5823 5822 5821 5820 5820 5819 5819 5819 5818 5818 5818 5818 5818 5818 5818 5819 5819
5840 5840 5840 5840 5840 5840 5839 5839 5839 5839 5838 5838 5837 5837 5836 5834 5833 5832 5831 5829 5827 5825 5823 5822 5820 5818 5817 5815 5815 5814 5814 5814 5813 5813 5814 5813 5813 5814 5814 5814 5814 5814 5815
5836 5836 5836 5836 5836 5836 5836 5836 5836 5835 5835 5834 5833 5832 5831 5830 5829 5828 5826 5824 5822 5820 5818 5816 5814 5812 5810 5809 5808 5808 5808 5808 5808 5808 5808 5808 5808 5809 5809 5809 5809 5810 5810
5833 5833 5833 5833 5833 5833 5833 5832 5832 5831 5831 5830 5829 5828 5827 5826 5825 5823 5821 5819 5817 5815 5813 5810 5808 5806 5804 5802 5801 5800 5800 5800 5801 5802 5802 5802 5803 5803 5804 5804 5804 5805 5805
5828 5828 5829 5829 5829 5829 5829 5829 5828 5827 5827 5826 5825 5824 5823 5822 5820 5818 5816 5814 5812 5810 5808 5805 5803 5800 5798 5797 5795 5794 5793 5793 5794 5795 5796 5797 5797 5798 5798 5799 5799 5800 5800
5824 5824 5824 5824 5824 5824 5824 5824 5824 5823 5822 5821 5820 5819 5818 5817 5815 5813 5811 5809 5807 5805 5803 5800 5798 5795 5793 5791 5789 5787 5787 5786 5787 5788 5790 5790 5791 5792 5792 5793 5794 5794 5795